User: anonymous   Login
Location: Helsinki
(60.1699°N, 24.9384°E)
Time: 22:29:25
(UTC+03:00)
Language:

Tiros 1 despin weight - Orbit

View from above orbital plane
View from above orbital plane
View from above satellite
View from above satellite

Ground track
Ground track

The orbit data is extracted from the following two-line orbital elements,

1 00115U 60002D   22275.21221155  .00002466  00000-0  31155-3 0  9998
2 00115  48.1667 208.4731 0034354 337.8738  22.0691 14.84671516316085
Epoch (UTC): 02 October 2022 05:05:35
Eccentricity: 0.0034354
inclination: 48.1667°
perigee height: 590 km
apogee height: 638 km
right ascension of ascending node: 208.4731°
argument of perigee: 337.8738°
revolutions per day: 14.84671516
mean anomaly at epoch: 22.0691°
orbit number at epoch: 31608

The dashed part of the orbit path shows where the satellite is in the earth's shadow,  

DLR